Weather History for KLKV - October, 2013

Change the Weather History Date:

Monday, October 28, 2013

  Actual Average (KAAT) Record (KAAT)
Temperature  
Mean Temperature 32 °F 43 °F  
Max Temperature 37 °F 59 °F 82 °F (1968)
Min Temperature 28 °F 26 °F 13 °F (1948)
Degree Days  
Heating Degree Days 32 22  
Month to date heating degree days 497  
Since 1 July heating degree days 874  
Cooling Degree Days 0 0  
Month to date cooling degree days 0  
Year to date cooling degree days 156  
Moisture  
Dew Point 28 °F    
Average Humidity 83    
Maximum Humidity 93    
Minimum Humidity 70    
Precipitation  
Precipitation 0.00 in 0.05 in 0.86 in (2004)
Month to date precipitation 0.86  
Year to date precipitation 10.52  
Sea Level Pressure  
Sea Level Pressure 29.67 in    
Wind  
Wind Speed 14 mph (North)    
Max Wind Speed 28 mph    
Max Gust Speed 34 mph    
Visibility 9 miles    
Events      
T = Trace of Precipitation, MM = Missing Value Source: NWS Daily Summary

Daily Weather History Graph

Daily Weather History Graph

Search for Another Location

Airport or City:

Trip Planner

Search our weather history database for the weather conditions in past years. The results will help you decide how hot, cold, wet, or windy it might be!

Date:

Astronomy

Oct. 28, 2013 Rise Set
Actual Time 7:30 AM PDT 6:00 PM PDT
Civil Twilight 7:01 AM PDT 6:28 PM PDT
Nautical Twilight 6:28 AM PDT 7:01 PM PDT
Astronomical Twilight 5:55 AM PDT 7:34 PM PDT
Moon 1:21 AM PDT (10/28) 2:50 PM PDT (10/28)
Length of Visible Light 11h 27m
Length of Day
10h 29m
Waning Crescent, 33% of the Moon is Illuminated
Oct 28
Waning Crescent
Nov 3
New
Nov 9
First Quarter
Nov 17
Full
Nov 25
Last Quarter

Hourly Weather History & Observations

Time (PDT) Temp. Windchill Dew Point Humidity Pressure Visibility Wind Dir Wind Speed Gust Speed Precip Events Conditions
12:15 AM 33.8 °F 25.3 °F 30.2 °F 87% 29.64 in 9.0 mi North 11.5 mph - N/A   Mostly Cloudy
12:35 AM 33.8 °F 25.3 °F 30.2 °F 87% 29.63 in 10.0 mi North 11.5 mph - N/A   Mostly Cloudy
12:55 AM 33.8 °F 25.8 °F 30.2 °F 87% 29.62 in 10.0 mi North 10.4 mph 16.1 mph N/A   Overcast
1:15 AM 33.8 °F 24.3 °F 30.2 °F 87% 29.61 in 7.0 mi NNW 13.8 mph - N/A   Overcast
1:35 AM 33.8 °F 25.3 °F 30.2 °F 87% 29.61 in 10.0 mi North 11.5 mph - N/A   Overcast
1:55 AM 33.8 °F 24.3 °F 30.2 °F 87% 29.61 in 10.0 mi North 13.8 mph - N/A   Overcast
2:15 AM 33.8 °F 24.3 °F 30.2 °F 87% 29.60 in 5.0 mi North 13.8 mph 18.4 mph N/A   Overcast
2:35 AM 33.8 °F 24.8 °F 30.2 °F 87% 29.60 in 10.0 mi North 12.7 mph - N/A   Overcast
2:55 AM 33.8 °F 25.8 °F 30.2 °F 87% 29.60 in 10.0 mi North 10.4 mph - N/A   Overcast
3:15 AM 33.8 °F 25.3 °F 30.2 °F 87% 29.59 in 10.0 mi NNW 11.5 mph - N/A   Overcast
3:35 AM 33.8 °F 24.3 °F 30.2 °F 87% 29.59 in 9.0 mi North 13.8 mph - N/A   Mostly Cloudy
3:55 AM 33.8 °F 25.8 °F 30.2 °F 87% 29.58 in 10.0 mi North 10.4 mph - N/A   Overcast
4:15 AM 33.8 °F 24.3 °F 30.2 °F 87% 29.58 in 10.0 mi North 13.8 mph 19.6 mph N/A   Overcast
4:35 AM 33.8 °F 25.3 °F 30.2 °F 87% 29.59 in 10.0 mi NNW 11.5 mph - N/A   Overcast
4:55 AM 33.8 °F 25.3 °F 30.2 °F 87% 29.58 in 10.0 mi North 11.5 mph - N/A   Overcast
5:15 AM 33.8 °F 24.3 °F 30.2 °F 87% 29.57 in 10.0 mi North 13.8 mph - N/A   Overcast
5:35 AM 33.8 °F 23.5 °F 30.2 °F 87% 29.58 in 10.0 mi NNE 16.1 mph - N/A   Overcast
5:55 AM 33.8 °F 25.3 °F 30.2 °F 87% 29.58 in 10.0 mi NNE 11.5 mph 21.9 mph N/A   Mostly Cloudy
6:15 AM 33.8 °F 23.9 °F 30.2 °F 87% 29.59 in 10.0 mi North 15.0 mph - N/A   Overcast
6:35 AM 33.8 °F 23.9 °F 30.2 °F 87% 29.58 in 10.0 mi North 15.0 mph - N/A   Overcast
6:55 AM 33.8 °F 24.8 °F 30.2 °F 87% 29.59 in 10.0 mi North 12.7 mph - N/A   Overcast
7:15 AM 33.8 °F 24.8 °F 30.2 °F 87% 29.59 in 9.0 mi North 12.7 mph 17.3 mph N/A   Overcast
7:35 AM 33.8 °F 25.8 °F 30.2 °F 87% 29.59 in 10.0 mi NNW 10.4 mph - N/A   Overcast
7:55 AM 33.8 °F 27.0 °F 32.0 °F 93% 29.60 in 6.0 mi NNW 8.1 mph - N/A   Overcast
8:15 AM 33.8 °F 25.3 °F 32.0 °F 93% 29.60 in 8.0 mi North 11.5 mph 16.1 mph N/A   Overcast
8:35 AM 33.8 °F 24.3 °F 32.0 °F 93% 29.60 in 10.0 mi North 13.8 mph 20.7 mph N/A   Overcast
8:55 AM 33.8 °F 22.5 °F 30.2 °F 87% 29.62 in 3.0 mi North 19.6 mph 24.2 mph N/A   Overcast
9:15 AM 33.8 °F 23.2 °F 32.0 °F 93% 29.63 in 4.0 mi NNW 17.3 mph 23.0 mph N/A   Overcast
9:35 AM 33.8 °F 22.5 °F 32.0 °F 93% 29.63 in 5.0 mi North 19.6 mph 24.2 mph N/A   Overcast
9:55 AM 33.8 °F 22.5 °F 30.2 °F 87% 29.63 in 3.0 mi North 19.6 mph 25.3 mph N/A   Overcast
10:15 AM 33.8 °F 22.2 °F 30.2 °F 87% 29.63 in 7.0 mi North 20.7 mph 28.8 mph N/A   Overcast
10:35 AM 33.8 °F 21.6 °F 30.2 °F 87% 29.63 in 10.0 mi North 23.0 mph 28.8 mph N/A   Overcast
10:55 AM 33.8 °F 21.9 °F 30.2 °F 87% 29.63 in 10.0 mi NNW 21.9 mph 31.1 mph N/A   Overcast
11:15 AM 33.8 °F 21.9 °F 30.2 °F 87% 29.63 in 10.0 mi North 21.9 mph 31.1 mph N/A   Mostly Cloudy
11:35 AM 35.6 °F 23.0 °F 30.2 °F 81% 29.64 in 10.0 mi North 27.6 mph 34.5 mph N/A   Overcast
11:55 AM 33.8 °F 21.9 °F 28.4 °F 81% 29.64 in 10.0 mi North 21.9 mph 34.5 mph N/A   Mostly Cloudy
12:15 PM 33.8 °F 23.5 °F 28.4 °F 81% 29.65 in 10.0 mi North 16.1 mph 27.6 mph N/A   Overcast
12:35 PM 35.6 °F 24.5 °F 28.4 °F 75% 29.64 in 10.0 mi North 20.7 mph 26.5 mph N/A   Overcast
12:55 PM 37.4 °F 26.1 °F 28.4 °F 70% 29.63 in 10.0 mi North 24.2 mph 33.4 mph N/A   Mostly Cloudy
1:15 PM 37.4 °F 25.4 °F 28.4 °F 70% 29.62 in 10.0 mi North 27.6 mph 33.4 mph N/A   Mostly Cloudy
1:35 PM 35.6 °F 24.8 °F 26.6 °F 70% 29.64 in 10.0 mi North 19.6 mph 27.6 mph N/A   Overcast
1:55 PM 35.6 °F 25.2 °F 26.6 °F 70% 29.64 in 10.0 mi North 18.4 mph 27.6 mph N/A   Overcast
2:15 PM 33.8 °F 23.2 °F 26.6 °F 75% 29.66 in 10.0 mi North 17.3 mph 26.5 mph N/A   Overcast
2:35 PM 33.8 °F 23.2 °F 24.8 °F 70% 29.66 in 10.0 mi North 17.3 mph 27.6 mph N/A   Overcast
2:55 PM 33.8 °F 23.2 °F 24.8 °F 70% 29.66 in 10.0 mi North 17.3 mph 28.8 mph N/A   Overcast
3:15 PM 32.0 °F 20.5 °F 24.8 °F 75% 29.67 in 10.0 mi North 18.4 mph 28.8 mph N/A   Overcast
3:35 PM 32.0 °F 20.1 °F 24.8 °F 75% 29.67 in 10.0 mi North 19.6 mph 29.9 mph N/A   Overcast
3:55 PM 32.0 °F 19.8 °F 24.8 °F 75% 29.68 in 10.0 mi North 20.7 mph 29.9 mph N/A   Overcast
4:15 PM 30.2 °F 17.8 °F 24.8 °F 80% 29.69 in 10.0 mi North 19.6 mph 27.6 mph N/A   Overcast
4:35 PM 30.2 °F 18.9 °F 24.8 °F 80% 29.70 in 10.0 mi North 16.1 mph 23.0 mph N/A   Overcast
4:55 PM 30.2 °F 19.8 °F 24.8 °F 80% 29.71 in 10.0 mi North 13.8 mph 20.7 mph N/A   Overcast
5:15 PM 30.2 °F 18.5 °F 24.8 °F 80% 29.71 in 10.0 mi North 17.3 mph 25.3 mph N/A   Overcast
5:35 PM 30.2 °F 19.8 °F 24.8 °F 80% 29.72 in 2.5 mi North 13.8 mph 21.9 mph N/A   Overcast
5:55 PM 30.2 °F 20.2 °F 24.8 °F 80% 29.73 in 2.0 mi North 12.7 mph 19.6 mph N/A   Overcast
6:15 PM 30.2 °F 20.8 °F 24.8 °F 80% 29.74 in 5.0 mi North 11.5 mph - N/A   Overcast
6:35 PM 30.2 °F 19.8 °F 24.8 °F 80% 29.74 in 10.0 mi North 13.8 mph - N/A   Overcast
6:55 PM 30.2 °F 20.8 °F 24.8 °F 80% 29.75 in 10.0 mi North 11.5 mph 18.4 mph N/A   Overcast
7:15 PM 30.2 °F 20.8 °F 24.8 °F 80% 29.76 in 10.0 mi North 11.5 mph - N/A   Overcast
7:35 PM 30.2 °F 19.8 °F 24.8 °F 80% 29.77 in 10.0 mi North 13.8 mph - N/A   Overcast
7:55 PM 30.2 °F 20.8 °F 24.8 °F 80% 29.77 in 10.0 mi North 11.5 mph 18.4 mph N/A   Overcast
8:15 PM 30.2 °F 20.2 °F 24.8 °F 80% 29.77 in 10.0 mi North 12.7 mph 19.6 mph N/A   Overcast
8:35 PM 30.2 °F 21.3 °F 24.8 °F 80% 29.77 in 10.0 mi North 10.4 mph - N/A   Overcast
8:55 PM 30.2 °F 20.8 °F 23.0 °F 75% 29.78 in 10.0 mi North 11.5 mph - N/A   Overcast
9:15 PM 30.2 °F 20.8 °F 23.0 °F 75% 29.78 in 10.0 mi North 11.5 mph - N/A   Overcast
9:35 PM 28.4 °F 18.5 °F 24.8 °F 86% 29.79 in 10.0 mi North 11.5 mph - N/A   Overcast
9:55 PM 28.4 °F 19.1 °F 24.8 °F 86% 29.80 in 10.0 mi North 10.4 mph 16.1 mph N/A   Overcast
10:15 PM 28.4 °F 19.1 °F 24.8 °F 86% 29.81 in 10.0 mi North 10.4 mph - N/A   Overcast
10:35 PM 28.4 °F 19.7 °F 24.8 °F 86% 29.81 in 10.0 mi North 9.2 mph 16.1 mph N/A   Overcast
10:55 PM 30.2 °F 20.2 °F 23.0 °F 75% 29.82 in 10.0 mi North 12.7 mph 17.3 mph N/A   Overcast
11:15 PM 28.4 °F 19.1 °F 23.0 °F 80% 29.83 in 10.0 mi North 10.4 mph 19.6 mph N/A   Overcast
11:35 PM 28.4 °F 19.1 °F 23.0 °F 80% 29.84 in 10.0 mi North 10.4 mph - N/A   Overcast
11:55 PM 28.4 °F 19.1 °F 23.0 °F 80% 29.83 in 10.0 mi North 10.4 mph - N/A   Overcast